This is the latest recevied weather packets stored in our database for station/object K7AEL. If no packets are shown the sender has not sent any weather packets the latest 10 day(s).
| Time | Temp. | Humidity | Pressure | Rain* | Wind** | Luminosity | Snow |
|---|---|---|---|---|---|---|---|
| 1777747640 | 30° C | 21% | 1015.5 hPa | 0 mm | - | 748 W/m² | - |
| 1777747336 | 30° C | 23% | 1015.6 hPa | 0 mm | - | 745 W/m² | - |
| 1777747033 | 30° C | 23% | 1015.7 hPa | 0 mm | - | 741 W/m² | - |
| 1777746729 | 30.56° C | 23% | 1015.7 hPa | 0 mm | - | 737 W/m² | - |
| 1777746424 | 30° C | 24% | 1015.9 hPa | 0 mm | - | 733 W/m² | - |
| 1777746119 | 29.44° C | 25% | 1015.7 hPa | 0 mm | - | 731 W/m² | - |
| 1777745817 | 29.44° C | 24% | 1015.8 hPa | 0 mm | - | 726 W/m² | - |
| 1777745516 | 29.44° C | 27% | 1016 hPa | 0 mm | - | 721 W/m² | - |
| 1777745212 | 29.44° C | 25% | 1016.1 hPa | 0 mm | - | 714 W/m² | - |
| 1777744910 | 29.44° C | 26% | 1016.1 hPa | 0 mm | - | 709 W/m² | - |
| 1777744608 | 28.89° C | 26% | 1016.3 hPa | 0 mm | - | 702 W/m² | - |
| 1777744304 | 28.89° C | 27% | 1016.3 hPa | 0 mm | - | 699 W/m² | - |
| 1777744002 | 28.33° C | 26% | 1016.3 hPa | 0 mm | - | 690 W/m² | - |
| 1777743698 | 27.78° C | 28% | 1016.4 hPa | 0 mm | - | 682 W/m² | - |
| 1777743396 | 27.78° C | 27% | 1016.5 hPa | 0 mm | - | 674 W/m² | - |
| 1777743094 | 28.33° C | 28% | 1016.4 hPa | 0 mm | - | 665 W/m² | - |
| 1777742791 | 28.33° C | 28% | 1016.3 hPa | 0 mm | - | 656 W/m² | - |
| 1777742488 | 27.78° C | 29% | 1016.4 hPa | 0 mm | - | 645 W/m² | - |
| 1777742183 | 27.22° C | 29% | 1016.5 hPa | 0 mm | - | 635 W/m² | - |
| 1777741880 | 27.78° C | 29% | 1016.4 hPa | 0 mm | - | 628 W/m² | - |
| 1777741577 | 27.78° C | 29% | 1016.5 hPa | 0 mm | - | 615 W/m² | - |
| 1777741274 | 26.67° C | 30% | 1016.4 hPa | 0 mm | - | 606 W/m² | - |
| 1777740971 | 27.22° C | 30% | 1016.6 hPa | 0 mm | - | 592 W/m² | - |
| 1777740668 | 26.67° C | 30% | 1016.5 hPa | 0 mm | - | 581 W/m² | - |
| 1777740364 | 26.67° C | 30% | 1016.5 hPa | 0 mm | - | 569 W/m² | - |
* Rain latest hour (hover to see other rain measurements)
** Current wind speed in m/s (hover to see current wind gust speed)